Satellite-Ground Cal/Val Region Overpasses Predictions

Prediction of Satellite NPP Overpassing Cal/Val Region: PacNW

Region Location: (Latitude: 10.00, Longitude: 139.50) to (Latitude: 22.70, Longitude: 165.60).

Table of predicted overpasses for the next 14.0 days since TLE Epoch: 11/8/2015
Interval Starting Time Starting Location Ending Time Ending Location
1 11/08/2015 14:32:30 ( 11.74, 165.60) 11/08/2015 14:32:59 ( 10.04, 165.21)
2 11/08/2015 16:10:54 ( 22.65, 142.83) 11/08/2015 16:14:29 ( 10.03, 139.83)
3 11/09/2015 03:19:59 ( 10.03, 150.37) 11/09/2015 03:23:34 ( 22.65, 147.38)
4 11/09/2015 15:51:52 ( 22.67, 147.59) 11/09/2015 15:55:27 ( 10.05, 144.59)
5 11/10/2015 03:00:57 ( 10.01, 155.13) 11/10/2015 03:04:33 ( 22.69, 152.12)
6 11/10/2015 15:32:49 ( 22.69, 152.35) 11/10/2015 15:36:25 ( 10.01, 149.34)
7 11/11/2015 02:41:55 ( 10.05, 159.88) 11/11/2015 02:45:30 ( 22.68, 156.88)
8 11/11/2015 15:13:48 ( 22.64, 157.09) 11/11/2015 15:17:23 ( 10.02, 154.10)
9 11/12/2015 02:22:53 ( 10.04, 164.64) 11/12/2015 02:26:28 ( 22.67, 161.64)
10 11/12/2015 14:54:46 ( 22.65, 161.85) 11/12/2015 14:58:21 ( 10.03, 158.86)
11 11/13/2015 03:45:20 ( 10.05, 144.02) 11/13/2015 03:48:55 ( 22.68, 141.02)
12 11/13/2015 14:36:54 ( 18.49, 165.59) 11/13/2015 14:39:18 ( 10.03, 163.61)
13 11/13/2015 16:17:12 ( 22.70, 141.25) 11/13/2015 16:19:14 ( 15.54, 139.51)
14 11/14/2015 03:26:18 ( 10.06, 148.77) 11/14/2015 03:29:53 ( 22.68, 145.78)
15 11/14/2015 15:58:10 ( 22.69, 146.00) 11/14/2015 16:01:46 ( 10.01, 142.99)
16 11/15/2015 03:07:14 ( 10.01, 153.54) 11/15/2015 03:10:50 ( 22.69, 150.53)
17 11/15/2015 15:39:07 ( 22.68, 150.76) 11/15/2015 15:42:43 ( 10.00, 147.75)
18 11/16/2015 02:48:12 ( 10.02, 158.30) 11/16/2015 02:51:47 ( 22.65, 155.30)
19 11/16/2015 15:20:05 ( 22.66, 155.51) 11/16/2015 15:23:40 ( 10.04, 152.51)
20 11/17/2015 02:29:09 ( 10.04, 163.05) 11/17/2015 02:32:44 ( 22.67, 160.05)
21 11/17/2015 15:01:01 ( 22.70, 160.28) 11/17/2015 15:04:37 ( 10.02, 157.27)
22 11/18/2015 02:12:48 ( 19.53, 165.59) 11/18/2015 02:13:42 ( 22.70, 164.81)
23 11/18/2015 03:51:36 ( 10.02, 142.44) 11/18/2015 03:55:07 ( 22.42, 139.50)
24 11/18/2015 14:41:59 ( 22.67, 165.03) 11/18/2015 14:45:34 ( 10.05, 162.03)
25 11/18/2015 16:23:29 ( 22.66, 139.65) 11/18/2015 16:23:39 ( 22.07, 139.50)
26 11/19/2015 03:32:33 ( 10.06, 147.19) 11/19/2015 03:36:08 ( 22.68, 144.19)
27 11/19/2015 16:04:25 ( 22.68, 144.42) 11/19/2015 16:08:01 ( 10.00, 141.41)
28 11/20/2015 03:13:30 ( 10.04, 151.95) 11/20/2015 03:17:05 ( 22.67, 148.96)
29 11/20/2015 15:45:22 ( 22.70, 149.18) 11/20/2015 15:48:58 ( 10.02, 146.17)
30 11/21/2015 02:54:27 ( 10.03, 156.72) 11/21/2015 02:58:02 ( 22.65, 153.72)
31 11/21/2015 15:26:19 ( 22.65, 153.93) 11/21/2015 15:29:54 ( 10.03, 150.93)


NCC Satellite Cal/Val Overpasses Prediction Service
